Вернуться в каталог

FENGYUN 1C DEB

АктивенSSO
NORAD 31054·DEBRIS·🇨🇳 China

Запущен May 10, 1999 с Taiyuan Satellite Launch Center

Loading…

Ближайшие Пролёты (ближайшие 24 часа)

TLE

СвежийSource: Space-Track

Эпоха: Sep 13, 2026, 07:16 UTC

1 31054U 99025BEY 26256.30337199  .00000142  00000-0  10034-3 0  9992
2 31054  98.6845 265.8815 0010862  64.7371 308.2689 14.12313809  6223

Отслеживайте FENGYUN 1C DEB в реальном времени с AllMySat

Download on the App Store